Location: Newark
(47.3000°N, 8.0500°E)
Time: 19:22:56
(UTC+00:00)

OTV 5 (USA 277) - Pass Details

Date: 31 August 2019
Orbit: 310 x 324 km, 54.5° (Epoch: 17 October)

Event Time Altitude Azimuth Distance (km) Brightness Sun altitude
Rises 19:36:07 0° 284° (WNW) 2,043 ? -14.3°
Reaches altitude 10° 19:38:26 10° 305° (NW) 1,212 ? -14.6°
Maximum altitude 19:40:25 18° 352° (N) 858 ? -14.9°
Drops below altitude 10° 19:42:24 10° 40° (NE) 1,210 ? -15.2°
Enters shadow 19:42:39 - 44° (NE) 1,287 ? -15.2°
